When you browse on this site, cookies collect data to enhance your experience and personalize the content and advertising you see.
Visit our Privacy Policy to learn more. By continuing to use the site, you agree to this use of cookies and data.
  • In Deutschland
  • Länderverzeichnis
  • Für 7 Tage
  • Wassertemperatur
  • Wetterkarte
  • Widgets
  • user-avatar
    Anmelden

    Stündliche Wetter Nuenen

    Heute, 25 Februar, Dienstag

    Zeit Temperatur Niederschläge Wind Luftdruck Luftfeuchtigkeit
    00:00 +9°C° 0.2 mm 8 m/S 751 mmHg 82%
    01:00 +9°C° 0.1 mm 7 m/S 750 mmHg 81%
    02:00 +8°C° 0.1 mm 6 m/S 750 mmHg 79%
    03:00 +7°C° 0.1 mm 6 m/S 750 mmHg 77%
    04:00 +5°C° 0 mm 6 m/S 750 mmHg 77%
    05:00 +6°C° 0 mm 5 m/S 750 mmHg 76%
    06:00 +6°C° 0 mm 5 m/S 750 mmHg 76%
    07:00 +5°C° 0.1 mm 6 m/S 749 mmHg 73%
    08:00 +5°C° 0.1 mm 7 m/S 749 mmHg 71%
    09:00 +5°C° 0.1 mm 8 m/S 749 mmHg 68%
    10:00 +6°C° 0.1 mm 8 m/S 749 mmHg 64%
    11:00 +6°C° 0.1 mm 8 m/S 748 mmHg 60%
    12:00 +7°C° 0.1 mm 8 m/S 748 mmHg 55%
    13:00 +7°C° 0.2 mm 8 m/S 748 mmHg 57%
    14:00 +6°C° 0.2 mm 8 m/S 747 mmHg 59%
    15:00 +6°C° 0.2 mm 8 m/S 746 mmHg 61%
    16:00 +5°C° 0 mm 7 m/S 746 mmHg 63%
    17:00 +5°C° 0 mm 5 m/S 746 mmHg 65%
    18:00 +4°C° 0 mm 4 m/S 746 mmHg 67%
    19:00 +4°C° 0.1 mm 4 m/S 745 mmHg 71%
    20:00 +4°C° 0.1 mm 4 m/S 745 mmHg 76%
    21:00 +3°C° 0.1 mm 4 m/S 744 mmHg 80%
    22:00 +2°C° 1 mm 5 m/S 744 mmHg 81%
    23:00 +2°C° 1 mm 6 m/S 743 mmHg 81%

    Morgen, 26 Februar, Mittwoch

    Zeit Temperatur Niederschläge Wind Luftdruck Luftfeuchtigkeit
    00:00 0°C° 1 mm 8 m/S 743 mmHg 82%
    01:00 0°C° 1 mm 8 m/S 743 mmHg 86%
    02:00 -1°C° 1 mm 9 m/S 742 mmHg 90%
    03:00 -3°C° 1 mm 9 m/S 742 mmHg 95%
    04:00 -3°C° 2.4 mm 9 m/S 742 mmHg 95%
    05:00 -2°C° 2.4 mm 8 m/S 742 mmHg 96%
    06:00 -1°C° 2.4 mm 7 m/S 743 mmHg 97%
    07:00 -1°C° 0.7 mm 7 m/S 743 mmHg 95%
    08:00 +1°C° 0.7 mm 6 m/S 744 mmHg 92%
    09:00 +1°C° 0.7 mm 6 m/S 745 mmHg 90%
    10:00 +2°C° 0.2 mm 6 m/S 746 mmHg 86%
    11:00 +2°C° 0.2 mm 7 m/S 746 mmHg 81%
    12:00 +3°C° 0.2 mm 7 m/S 747 mmHg 77%
    13:00 +3°C° 0.1 mm 7 m/S 748 mmHg 77%
    14:00 +3°C° 0.1 mm 7 m/S 748 mmHg 76%
    15:00 +3°C° 0.1 mm 7 m/S 749 mmHg 76%
    16:00 +2°C° 0 mm 6 m/S 749 mmHg 78%
    17:00 +2°C° 0 mm 5 m/S 750 mmHg 79%
    18:00 +1°C° 0 mm 4 m/S 751 mmHg 81%
    19:00 +1°C° 0 mm 4 m/S 751 mmHg 82%
    20:00 +1°C° 0 mm 4 m/S 751 mmHg 83%
    21:00 0°C° 0 mm 4 m/S 752 mmHg 84%
    22:00 0°C° 0.2 mm 4 m/S 752 mmHg 83%
    23:00 0°C° 0.2 mm 4 m/S 753 mmHg 82%

    übermorgen, 27 Februar, Donnerstag

    Zeit Temperatur Niederschläge Wind Luftdruck Luftfeuchtigkeit
    00:00 0°C° 0.2 mm 5 m/S 753 mmHg 81%
    01:00 0°C° 0 mm 4 m/S 753 mmHg 81%
    02:00 0°C° 0 mm 4 m/S 752 mmHg 81%
    03:00 -1°C° 0 mm 4 m/S 752 mmHg 81%
    04:00 0°C° 0 mm 5 m/S 752 mmHg 81%
    05:00 0°C° 0 mm 5 m/S 751 mmHg 81%
    06:00 0°C° 0 mm 5 m/S 751 mmHg 81%
    07:00 0°C° 0.2 mm 5 m/S 750 mmHg 86%
    08:00 0°C° 0.2 mm 5 m/S 749 mmHg 91%
    09:00 0°C° 0.2 mm 5 m/S 748 mmHg 96%
    10:00 0°C° 0.3 mm 5 m/S 747 mmHg 96%
    11:00 0°C° 0.3 mm 4 m/S 746 mmHg 95%
    12:00 +1°C° 0.3 mm 3 m/S 745 mmHg 95%
    13:00 +1°C° 0.8 mm 3 m/S 745 mmHg 96%
    14:00 +1°C° 0.8 mm 3 m/S 745 mmHg 96%
    15:00 +2°C° 0.8 mm 2 m/S 744 mmHg 96%
    16:00 +1°C° 0.5 mm 3 m/S 745 mmHg 95%
    17:00 0°C° 0.5 mm 4 m/S 746 mmHg 93%
    18:00 0°C° 0.5 mm 5 m/S 748 mmHg 92%
    19:00 0°C° 0 mm 5 m/S 749 mmHg 89%
    20:00 0°C° 0 mm 5 m/S 750 mmHg 86%
    21:00 0°C° 0 mm 4 m/S 751 mmHg 83%
    22:00 0°C° 0 mm 5 m/S 752 mmHg 83%
    23:00 0°C° 0 mm 5 m/S 753 mmHg 82%

    28 Februar, Freitag

    Zeit Temperatur Niederschläge Wind Luftdruck Luftfeuchtigkeit
    00:00 0°C° 0 mm 5 m/S 753 mmHg 82%
    01:00 0°C° 0 mm 5 m/S 754 mmHg 82%
    02:00 0°C° 0 mm 5 m/S 755 mmHg 82%
    03:00 0°C° 0 mm 5 m/S 755 mmHg 82%
    04:00 0°C° 0 mm 5 m/S 756 mmHg 84%
    05:00 0°C° 0 mm 5 m/S 757 mmHg 85%
    06:00 -1°C° 0 mm 5 m/S 757 mmHg 86%
    07:00 0°C° 0 mm 5 m/S 758 mmHg 84%
    08:00 +1°C° 0 mm 5 m/S 758 mmHg 82%
    09:00 +1°C° 0 mm 5 m/S 758 mmHg 79%
    10:00 +2°C° 0 mm 5 m/S 758 mmHg 76%
    11:00 +3°C° 0 mm 5 m/S 759 mmHg 73%
    12:00 +5°C° 0 mm 5 m/S 759 mmHg 69%
    13:00 +5°C° 0 mm 5 m/S 758 mmHg 69%
    14:00 +5°C° 0 mm 4 m/S 758 mmHg 68%
    15:00 +5°C° 0 mm 4 m/S 757 mmHg 67%
    16:00 +4°C° 0 mm 4 m/S 757 mmHg 71%
    17:00 +3°C° 0 mm 3 m/S 756 mmHg 76%
    18:00 +3°C° 0 mm 3 m/S 756 mmHg 80%
    19:00 +3°C° 0 mm 3 m/S 755 mmHg 81%
    20:00 +1°C° 0 mm 4 m/S 755 mmHg 82%
    21:00 +1°C° 0 mm 4 m/S 754 mmHg 83%
    22:00 +1°C° 0.2 mm 4 m/S 753 mmHg 85%
    23:00 +2°C° 0.2 mm 5 m/S 752 mmHg 87%

    29 Februar, Samstag

    Zeit Temperatur Niederschläge Wind Luftdruck Luftfeuchtigkeit
    00:00 +2°C° 0.2 mm 5 m/S 750 mmHg 88%
    01:00 +2°C° 0.6 mm 5 m/S 749 mmHg 91%
    02:00 +3°C° 0.6 mm 5 m/S 748 mmHg 93%
    03:00 +3°C° 0.6 mm 5 m/S 746 mmHg 95%
    04:00 +5°C° 0.9 mm 6 m/S 745 mmHg 94%
    05:00 +7°C° 0.9 mm 6 m/S 744 mmHg 92%
    06:00 +8°C° 0.9 mm 7 m/S 743 mmHg 91%
    07:00 +7°C° 0.4 mm 8 m/S 742 mmHg 89%
    08:00 +7°C° 0.4 mm 8 m/S 741 mmHg 88%
    09:00 +7°C° 0.4 mm 9 m/S 740 mmHg 87%
    10:00 +7°C° 0.8 mm 9 m/S 740 mmHg 83%
    11:00 +7°C° 0.8 mm 10 m/S 741 mmHg 80%
    12:00 +6°C° 0.8 mm 10 m/S 741 mmHg 76%
    13:00 +6°C° 0.2 mm 10 m/S 741 mmHg 71%
    14:00 +6°C° 0.2 mm 9 m/S 742 mmHg 66%
    15:00 +5°C° 0.2 mm 8 m/S 743 mmHg 61%
    16:00 +5°C° 0 mm 8 m/S 744 mmHg 62%
    17:00 +4°C° 0 mm 7 m/S 744 mmHg 64%
    18:00 +3°C° 0 mm 7 m/S 745 mmHg 65%
    19:00 +3°C° 0 mm 7 m/S 745 mmHg 66%
    20:00 +2°C° 0 mm 7 m/S 746 mmHg 67%
    21:00 +2°C° 0 mm 7 m/S 746 mmHg 68%
    22:00 +2°C° 0 mm 7 m/S 746 mmHg 69%
    23:00 +2°C° 0 mm 7 m/S 746 mmHg 69%

    1 März, Sonntag

    Zeit Temperatur Niederschläge Wind Luftdruck Luftfeuchtigkeit
    00:00 +2°C° 0 mm 7 m/S 747 mmHg 70%
    01:00 0°C° 0 mm 7 m/S 747 mmHg 72%
    02:00 0°C° 0 mm 7 m/S 747 mmHg 73%
    03:00 0°C° 0 mm 7 m/S 747 mmHg 75%
    04:00 0°C° 0 mm 7 m/S 748 mmHg 77%
    05:00 0°C° 0 mm 7 m/S 748 mmHg 80%
    06:00 0°C° 0 mm 7 m/S 748 mmHg 83%
    07:00 0°C° 0.1 mm 7 m/S 748 mmHg 81%
    08:00 +2°C° 0.1 mm 7 m/S 749 mmHg 78%
    09:00 +2°C° 0.1 mm 8 m/S 749 mmHg 76%
    10:00 +2°C° 0.4 mm 8 m/S 749 mmHg 78%
    11:00 +2°C° 0.4 mm 8 m/S 749 mmHg 80%
    12:00 +2°C° 0.4 mm 8 m/S 749 mmHg 83%
    13:00 +2°C° 0.4 mm 8 m/S 749 mmHg 81%
    14:00 +3°C° 0.4 mm 7 m/S 749 mmHg 80%
    15:00 +3°C° 0.4 mm 6 m/S 749 mmHg 79%
    16:00 +3°C° 0.1 mm 5 m/S 749 mmHg 81%
    17:00 +3°C° 0.1 mm 4 m/S 749 mmHg 83%
    18:00 +3°C° 0.1 mm 3 m/S 749 mmHg 85%
    19:00 +2°C° 0 mm 3 m/S 749 mmHg 87%
    20:00 +2°C° 0 mm 3 m/S 749 mmHg 89%
    21:00 +1°C° 0 mm 3 m/S 749 mmHg 91%
    22:00 +1°C° 0 mm 3 m/S 750 mmHg 92%
    23:00 +1°C° 0 mm 3 m/S 750 mmHg 93%
    Mehr zeigen